sat.trackr.live / text

‹ back to catalog

RASSVET-3 1

NORAD 68360 · 2026-061A

PAYLOAD ACTIVE UNKNOWN

§ Identity

Operator
Country
CIS
Launch date
2026-03-23
Launch site
PLMSC
Launch vehicle
Mass (kg)
RCS (m²)

External: N2YO · Heavens-Above · Gunter

§ Orbital elements

Epoch: 2026-05-25T04:16:44.802912Z

Period
90.79 min
Inclination
82.2957°
Eccentricity
0.0006907
Mean motion
15.86112360 rev/d
Perigee alt
308.6 km
Apogee alt
317.8 km
Semi-major
6,691.3 km
B*
2.9628e-4
RAAN
38.1076°
Arg perigee
183.3818°
Mean anomaly
176.7406°
Rev number
991

§ Raw data

RASSVET-3 11 68360U 26061A   26145.17829633  .00073524  00000+0  29628-3 0  99952 68360  82.2957  38.1076 0006907 183.3818 176.7406 15.86112360  9910

JSON: /api/v1/satellites/68360 · /tle

For live sub-satellite position, see the globe view (requires WebGL).

§ Visibility from observer

Set your observer location to see the next 7 days of passes ≥ 10°. The values pass through the URL so the page stays shareable.

No JS? Fill the form by hand. The geolocation button needs JavaScript.